Falls City, NE

3:14 PM CDT on July 25, 2017 (GMT -0500)
Brenner

Weather History for KFNB - August, 2013

Change the Weather History Date:

Thursday, August 29, 2013

  Actual Average Record
Temperature  
Mean Temperature 82 °F -  
Max Temperature 93 °F 87 °F 105 °F (1984)
Min Temperature 70 °F 60 °F 42 °F (1988)
Cooling Degree Days 16    
Growing Degree Days 32 (Base 50)    
Moisture  
Dew Point 73 °F    
Average Humidity 78    
Maximum Humidity 97    
Minimum Humidity 56    
Precipitation  
Precipitation 0.00 in - - ()
Sea Level Pressure  
Sea Level Pressure 29.95 in    
Wind  
Wind Speed 5 mph (SSE)    
Max Wind Speed 10 mph    
Max Gust Speed -    
Visibility 10 miles    
Events      
Averages and records for this station are not official NWS values.
T = Trace of Precipitation, MM = Missing Value Source: NWS Daily Summary

Daily Weather History Graph

Daily Weather History Graph

Search for Another Location

Airport or City:

Trip Planner

Search our weather history database for the weather conditions in past years. The results will help you decide how hot, cold, wet, or windy it might be!

Date:

Astronomy

Aug. 29, 2013 Rise Set
Actual Time 6:47 AM CDT 7:58 PM CDT
Civil Twilight 6:19 AM CDT 8:26 PM CDT
Nautical Twilight 5:46 AM CDT 8:59 PM CDT
Astronomical Twilight 5:10 AM CDT 9:34 PM CDT
Moon 12:39 AM CDT (8/29) 3:27 PM CDT (8/29)
Length of Visible Light 14h 06m
Length of Day
13h 10m
Last Quarter, 38% of the Moon is Illuminated
Aug 29
Last Quarter
Sep 5
New
Sep 12
First Quarter
Sep 19
Full
Sep 26
Last Quarter

Hourly Weather History & Observations

Time (CDT) Temp. Heat Index Dew Point Humidity Pressure Visibility Wind Dir Wind Speed Gust Speed Precip Events Conditions
12:53 AM 73.0 °F - 71.1 °F 93% 29.99 in 10.0 mi SE 3.5 mph - N/A   Clear
1:53 AM 73.9 °F - 71.1 °F 91% 29.99 in 10.0 mi South 4.6 mph - N/A   Clear
2:53 AM 70.0 °F - 68.0 °F 93% 29.99 in 10.0 mi Calm Calm - N/A   Clear
3:53 AM 71.1 °F - 69.1 °F 93% 29.99 in 10.0 mi SE 3.5 mph - N/A   Clear
4:53 AM 70.0 °F - 69.1 °F 97% 29.99 in 10.0 mi SE 3.5 mph - N/A   Clear
5:53 AM 70.0 °F - 69.1 °F 97% 29.99 in 10.0 mi SSE 3.5 mph - N/A   Clear
6:53 AM 71.1 °F - 69.1 °F 93% 29.99 in 10.0 mi SSE 3.5 mph - N/A   Clear
7:53 AM 73.0 °F - 72.0 °F 96% 29.99 in 10.0 mi SSE 3.5 mph - N/A   Clear
8:53 AM 75.0 °F - 73.0 °F 94% 29.99 in 8.0 mi ESE 3.5 mph - N/A   Clear
9:53 AM 79.0 °F - 73.9 °F 84% 29.99 in 10.0 mi SSE 6.9 mph - N/A   Clear
10:53 AM 84.0 °F 91.9 °F 75.0 °F 74% 29.99 in 10.0 mi South 8.1 mph - N/A   Clear
11:53 AM 86.0 °F 93.8 °F 73.9 °F 67% 29.99 in 10.0 mi South 8.1 mph - N/A   Clear
12:53 PM 89.1 °F 99.1 °F 75.0 °F 63% 29.96 in 10.0 mi SSE 9.2 mph - N/A   Clear
1:53 PM 91.0 °F 101.6 °F 75.0 °F 59% 29.95 in 10.0 mi SSE 10.4 mph - N/A   Clear
2:53 PM 91.9 °F 105.9 °F 77.0 °F 62% 29.93 in 10.0 mi SSE 9.2 mph - N/A   Clear
3:53 PM 93.0 °F 104.6 °F 75.0 °F 56% 29.92 in 10.0 mi SE 8.1 mph - N/A   Clear
4:53 PM 93.0 °F 104.6 °F 75.0 °F 56% 29.91 in 10.0 mi SSE 9.2 mph - N/A   Clear
5:53 PM 91.9 °F 103.9 °F 75.9 °F 59% 29.90 in 6.0 mi SE 5.8 mph - N/A   Haze
6:53 PM 89.1 °F 103.2 °F 78.1 °F 70% 29.89 in 10.0 mi SE 3.5 mph - N/A   Clear
7:53 PM 84.9 °F 95.3 °F 77.0 °F 77% 29.90 in 10.0 mi SE 3.5 mph - N/A   Scattered Clouds
8:53 PM 84.0 °F 91.2 °F 73.9 °F 72% 29.90 in 10.0 mi South 5.8 mph - N/A   Scattered Clouds
9:53 PM 84.0 °F 90.2 °F 73.0 °F 69% 29.90 in 10.0 mi South 8.1 mph - N/A   Clear
10:53 PM 82.9 °F 88.8 °F 73.0 °F 72% 29.89 in 10.0 mi South 8.1 mph - N/A   Clear
11:53 PM 81.0 °F 85.2 °F 72.0 °F 74% 29.89 in 10.0 mi South 8.1 mph - N/A   Clear